Powrót do katalogu

STARLINK-32889

AktywnyŁącznośćVLEO
NORAD 62961·PAYLOAD·🇺🇸 United States

Wystrzelony Feb 11, 2025 z Vandenberg Space Force Base

Loading…

Następne Przeloty (najbliższe 24 godziny)

TLE

ŚwieżeSource: CelesTrak SupGP

Epoka: Sep 14, 2026, 22:40 UTC

1 62961C 25029P   26257.94493056  .00036304  00000+0  10729-2 0  2577
2 62961  53.1586  71.3616 0001178  82.6616 217.8997 15.34363520    10

Śledź STARLINK-32889 w czasie rzeczywistym z AllMySat

Download on the App Store